Keps
Threads by month
- ----- 2024 -----
- December
- November
- October
- September
- August
- July
- June
- May
- April
- March
- February
- January
- ----- 2023 -----
- December
- November
- October
- September
- August
- July
- June
- May
- April
- March
- February
- January
- ----- 2022 -----
- December
- November
- October
- September
- August
- July
- June
- May
- April
- March
- February
- January
- ----- 2021 -----
- December
- November
- October
- September
- August
- July
- June
- May
- April
- March
- February
- January
- ----- 2020 -----
- December
- November
- October
- September
- August
- July
- June
- May
- April
- March
- February
- January
- ----- 2019 -----
- December
- November
- October
- September
- August
- July
- June
- May
- April
- March
- February
- January
- ----- 2018 -----
- December
- November
- October
- September
- August
- July
- June
- May
- April
- March
- February
- January
- ----- 2017 -----
- December
- November
- October
- September
- August
- July
- June
- May
- April
- March
- February
- January
- ----- 2016 -----
- December
- November
- October
- September
- August
- July
- June
- May
- April
- March
- February
- January
- ----- 2015 -----
- December
- November
- October
- September
- August
- July
- June
- May
- April
- March
- February
- January
- ----- 2014 -----
- December
- November
- October
- September
- August
- July
- June
- May
- April
- March
- February
- January
- ----- 2013 -----
- December
- November
- October
- September
- August
- July
- June
- May
- April
- March
- February
- January
- ----- 2012 -----
- December
- November
- October
- September
- August
- July
- June
- May
- April
- March
- February
- January
- ----- 2011 -----
- December
- November
- October
- September
- August
- July
- June
- May
- April
- March
- February
- January
- ----- 2010 -----
- December
- November
- October
- September
- August
- July
- June
- May
- April
- March
- February
- January
- ----- 2009 -----
- December
- November
- October
- September
- August
- July
- June
- May
- April
- March
- February
- January
- ----- 2008 -----
- December
- November
- October
- September
- August
- July
- June
- May
- April
- March
- February
- January
- ----- 2007 -----
- December
- November
- October
- September
- August
- July
- June
- May
- April
- March
- February
- January
- ----- 2006 -----
- December
- November
- October
- September
October 2022
- 1 participants
- 6 discussions
SB KEPS @ AMSAT $ORB22300.N
2Line Orbital Elements 22300.AMSAT
HR AMSAT ORBITAL ELEMENTS FOR AMATEUR SATELLITES IN NASA FORMAT
FROM WA5QGD FORT WORTH,TX October 27, 2022
BID: ORB22300.N
DECODE 2-LINE ELSETS WITH THE FOLLOWING KEY:
1 AAAAAU 00 0 0 BBBBB.BBBBBBBB .CCCCCCCC 00000-0 00000-0 0 DDDZ
2 AAAAA EEE.EEEE FFF.FFFF GGGGGGG HHH.HHHH III.IIII JJ.JJJJJJJJKKKKKZ
KEY: A-CATALOGNUM B-EPOCHTIME C-DECAY D-ELSETNUM E-INCLINATION F-RAAN
G-ECCENTRICITY H-ARGPERIGEE I-MNANOM J-MNMOTION K-ORBITNUM Z-CHECKSUM
TO ALL RADIO AMATEURS BT
AO-07
1 07530U 74089B 22300.81093950 -.00000049 00000-0 -18014-4 0 9998
2 07530 101.9222 281.1727 0012262 146.9414 284.7055 12.53658090194299
UO-11
1 14781U 84021B 22300.42602771 .00000967 00000-0 12248-3 0 9994
2 14781 97.6319 281.9539 0006843 243.4366 116.6148 14.83913161 59619
AO-16
1 20439U 90005D 22300.40435103 .00000110 00000-0 57334-4 0 9997
2 20439 98.8609 279.9914 0011070 160.0355 3.1276 14.32949578711561
LO-19
1 20442U 90005G 22300.12964675 .00000120 00000-0 60294-4 0 9991
2 20442 98.8123 267.1116 0012416 138.3072 221.9060 14.33102733711968
HUBBLE
1 20580U 90037B 22300.54801972 .00002639 00000-0 14279-3 0 9993
2 20580 28.4715 13.2095 0002603 31.3629 65.8384 15.11126155586213
MET-2/21
1 22782U 93055A 22300.46900448 .00000021 00000-0 60672-5 0 9994
2 22782 82.5461 269.4476 0021862 340.6758 168.8200 13.83862904472269
AO-27
1 22825U 93061C 22300.80984038 .00000076 00000-0 47272-4 0 9994
2 22825 98.8748 334.5712 0008943 32.4914 327.6816 14.30203359517340
IO-26
1 22826U 93061D 22300.80090701 .00000091 00000-0 52618-4 0 9997
2 22826 98.8693 334.4338 0009233 19.1751 340.9777 14.30553140517583
FO-29
1 24278U 96046B 22300.42027577 -.00000004 00000-0 34341-4 0 9993
2 24278 98.5148 305.9422 0349426 300.9634 55.7606 13.53123005293453
NOAA-15
1 25338U 98030A 22300.80810163 .00000137 00000-0 75628-4 0 9998
2 25338 98.6334 328.5499 0009280 271.6938 88.3179 14.26187626272135
GO-32
1 25397U 98043D 22300.33639290 .00000060 00000-0 45884-4 0 9991
2 25397 98.8340 251.2409 0002368 87.1027 273.0422 14.23781757262192
ISS
1 25544U 98067A 22300.76448862 .00011267 00000-0 20888-3 0 9998
2 25544 51.6441 39.7919 0005932 11.0064 123.6531 15.49468146365746
NO-44
1 26931U 01043C 22300.36341243 .00000114 00000-0 75194-4 0 9998
2 26931 67.0508 77.9039 0005326 261.5545 98.4952 14.30751747100274
SO-50
1 27607U 02058C 22300.28705054 .00001043 00000-0 16231-3 0 9999
2 27607 64.5540 258.4102 0081584 269.3867 89.7887 14.76354994 67830
CO-55
1 27844U 03031E 22300.45339437 .00000260 00000-0 13582-3 0 9997
2 27844 98.6809 306.1646 0010958 81.0726 279.1692 14.22523457 2643
CO-57
1 27848U 03031J 22300.45785205 .00000205 00000-0 11244-3 0 9991
2 27848 98.6851 306.6589 0010864 94.0939 266.1481 14.22070521 2428
RS-22
1 27939U 03042A 22300.74790805 .00000832 00000-0 15531-3 0 9997
2 27939 98.2117 81.5946 0013294 146.4670 213.7375 14.67563666 20448
NOAA-18
1 28654U 05018A 22300.71491702 .00000216 00000-0 14009-3 0 9993
2 28654 98.9370 10.9692 0013496 320.5256 39.4931 14.12796714898743
CO-58
1 28895U 05043F 22300.31956548 .00001027 00000-0 20201-3 0 9990
2 28895 98.1251 69.8184 0017702 86.8771 273.4457 14.64597679906713
Falconsat-3
1 30776U 07006E 22300.53344852 .00090152 00000-0 80580-3 0 9998
2 30776 35.4267 108.2932 0004300 348.6641 11.3997 15.67118086870206
CO-65
1 32785U 08021C 22300.34166655 .00002220 00000-0 23491-3 0 9997
2 32785 97.6749 267.1611 0013292 149.6854 210.5135 14.90102025786122
AAUSAT2
1 32788U 08021F 22300.36542434 .00005906 00000-0 49564-3 0 9998
2 32788 97.5476 281.1866 0012714 49.8914 310.3422 14.98654582788189
DO-64
1 32789U 08021G 22300.03571538 .00011721 00000-0 59362-3 0 9999
2 32789 97.3298 321.7806 0008360 214.3816 145.6878 15.17111648791852
CO-66
1 32791U 08021J 22300.20794643 .00003668 00000-0 35372-3 0 9991
2 32791 97.6282 272.3922 0014499 108.1161 252.1639 14.93417417786853
RS-30
1 32953U 08025A 22300.45043222 .00000024 00000-0 10000-3 0 9996
2 32953 82.4983 101.8509 0019079 334.0202 25.9926 12.43114458654733
PRISM
1 33493U 09002B 22300.39531697 .00005332 00000-0 42032-3 0 9990
2 33493 98.2497 294.6744 0016790 101.0885 259.2227 15.01121721748767
NOAA-19
1 33591U 09005A 22300.66047645 .00000170 00000-0 11697-3 0 9995
2 33591 99.1347 337.4968 0014064 173.1050 187.0317 14.12628197707112
SRMSAT
1 37841U 11058D 22300.40990292 .00000412 00000-0 81321-4 0 9996
2 37841 19.9706 177.2740 0011781 354.3009 182.5793 14.10786427569899
HRBE
1 37855U 11061F 22300.45715929 .00008770 00000-0 36355-3 0 9993
2 37855 101.7193 129.8240 0146008 26.0054 334.8405 15.15116956601200
RS-40
1 38735U 12041C 22300.14000805 .00000010 00000-0 -20887-5 0 9991
2 38735 82.4801 183.4010 0018004 83.0437 277.2687 12.42587840464875
ZACUBE-1
1 39417U 13066B 22300.85561520 .00002908 00000-0 35563-3 0 9993
2 39417 97.6542 266.5211 0056410 332.1125 27.7069 14.82869496482748
Delfi-N3xt
1 39428U 13066N 22300.35677025 .00002040 00000-0 31648-3 0 9995
2 39428 97.8199 229.1131 0114808 215.3876 143.9675 14.69862393477907
GOMX-1
1 39430U 13066Q 22300.76468651 .00001904 00000-0 34473-3 0 9993
2 39430 97.7969 200.3437 0148590 348.2042 11.5695 14.60525196475605
LO-74
1 39440U 13066AA 22300.34009956 .00002077 00000-0 28368-3 0 9995
2 39440 97.7422 252.4790 0079725 64.0958 296.8444 14.77435780479759
AO-73
1 39444U 13066AE 22300.36745841 .00002894 00000-0 34433-3 0 9998
2 39444 97.6416 268.4824 0054779 320.9787 38.7481 14.84066097481088
SPROUT
1 39770U 14029E 22300.80172505 .00008190 00000-0 79748-3 0 9993
2 39770 97.9529 58.7879 0008426 11.3078 348.8322 14.92750002457391
DTUSAT-2
1 40030U 14033W 22300.52199167 .00002506 00000-0 26196-3 0 9995
2 40030 97.9446 233.8937 0011174 348.1123 11.9829 14.90548738453314
EO-80
1 40032U 14033Y 22300.49657145 .00003118 00000-0 32465-3 0 9994
2 40032 97.9451 233.8831 0011091 349.2715 10.8264 14.90526598453289
HODOYOSHI-1
1 40299U 14070B 22300.54208491 .00006318 00000-0 23136-3 0 9992
2 40299 97.2303 4.7801 0012640 35.3059 77.0739 15.28290499443225
FIREBIRD FU3
1 40377U 15003B 22300.52412478 .00026544 00000-0 69429-3 0 9994
2 40377 99.0787 195.1924 0088283 297.1107 62.1146 15.34777390428640
FIREBIRD FU4
1 40378U 15003C 22300.27999784 .00024370 00000-0 63622-3 0 9991
2 40378 99.0799 195.1365 0088165 297.4231 61.8059 15.34865449428601
GRIFEX
1 40379U 15003D 22300.19469823 .00013943 00000-0 45854-3 0 9990
2 40379 99.0899 179.3535 0108874 345.3223 14.4856 15.26070469427698
XW-2A
1 40903U 15049E 22300.86293987 .00032360 00000-0 39822-3 0 9995
2 40903 97.1623 359.9785 0007111 358.6456 114.3207 15.60155794399854
XW-2C
1 40906U 15049H 22300.87903993 .00006380 00000-0 29447-3 0 9999
2 40906 97.4966 303.3765 0011317 255.0575 189.3811 15.20519856393032
XW-2D
1 40907U 15049J 22300.83778347 .00007384 00000-0 33186-3 0 9999
2 40907 97.4956 303.4459 0010669 249.1784 195.0105 15.21387514393088
LILACSAT-2
1 40908U 15049K 22300.56634307 .00003485 00000-0 18150-3 0 9999
2 40908 97.5221 299.9447 0013197 281.3014 230.4505 15.16603453392505
XW-2E
1 40909U 15049L 22300.52412896 .00011995 00000-0 46677-3 0 9993
2 40909 97.4657 308.0015 0009714 223.4413 237.5217 15.26120515393537
XW-2F
1 40910U 15049M 22300.56365536 .00011856 00000-0 46891-3 0 9991
2 40910 97.4734 307.2072 0010247 227.3265 232.3870 15.25576778393308
XW-2B
1 40911U 15049N 22300.54709337 .00007477 00000-0 33733-3 0 9996
2 40911 97.4946 303.7105 0010417 251.5301 207.3038 15.21253347392926
DCBB
1 40912U 15049P 22300.54764307 .00013807 00000-0 49076-3 0 9996
2 40912 97.4350 311.5429 0011508 184.2902 274.7464 15.29059433393912
